View from above orbital plane
|
View from above satellite
|
Ground track
|
The orbit data is extracted from the following two-line orbital elements,
1 16369U 85116B 21015.51372976 .00000060 00000-0 45279-4 0 9992
2 16369 82.9376 95.2249 0037745 97.4194 274.0279 13.76864169761717
Epoch (UTC): | 15 January 2021 12:19:46 |
Eccentricity: | 0.0037745 |
inclination: | 82.9376° |
perigee height: | 947 km |
apogee height: | 1003 km |
right ascension of ascending node: | 95.2249° |
argument of perigee: | 97.4194° |
revolutions per day: | 13.76864169 |
mean anomaly at epoch: | 274.0279° |
orbit number at epoch: | 76171 |
The dashed part of the orbit path shows where the satellite is in the earth's shadow,
|
|